Sydney, Australia

8:18 PM AEDT on February 21, 2017 (GMT +1100)
Kingsford Smith International

Weather History for YSSY - January, 2013

Change the Weather History Date:

Tuesday, January 1, 2013

  Actual Average Record
Temperature  
Mean Temperature 74 °F -  
Max Temperature 80 °F 80 °F 113 °F (2006)
Min Temperature 68 °F 65 °F 59 °F (2000)
Cooling Degree Days 9    
Growing Degree Days 24 (Base 50)    
Moisture  
Dew Point 65 °F    
Average Humidity 73    
Maximum Humidity 94    
Minimum Humidity 48    
Precipitation  
Precipitation 0.00 in 0.15 in - ()
Sea Level Pressure  
Sea Level Pressure 29.81 in    
Wind  
Wind Speed 10 mph ()    
Max Wind Speed 18 mph    
Max Gust Speed -    
Visibility 7.6 miles    
Events      
Averages and records for this station are not official NWS values.
T = Trace of Precipitation, MM = Missing Value Source: Averaged Metar Reports

Daily Weather History Graph

Daily Weather History Graph

Search for Another Location

Airport or City:

Trip Planner

Search our weather history database for the weather conditions in past years. The results will help you decide how hot, cold, wet, or windy it might be!

Date:

Astronomy

Jan. 01, 2013 Rise Set
Actual Time 5:47 AM AEDT 8:09 PM AEDT
Civil Twilight 5:18 AM AEDT 8:38 PM AEDT
Nautical Twilight 4:42 AM AEDT 9:14 PM AEDT
Astronomical Twilight 4:03 AM AEDT 9:53 PM AEDT
Moon 10:20 PM AEDT (1/1) 9:06 AM AEDT (1/1)
Length of Visible Light 15h 20m
Length of Day
14h 22m
Waning Gibbous, 88% of the Moon is Illuminated
Jan 1
Waning Gibbous
Jan 5
Last Quarter
Jan 12
New
Jan 19
First Quarter
Jan 27
Full

Hourly Weather History & Observations

Time (AEDT) Temp. Dew Point Humidity Pressure Visibility Wind Dir Wind Speed Gust Speed Precip Events Conditions
12:00 AM 73 °F 65 °F 71% 29.85 in 16 mi ENE 6.9 mph - -   Partly Cloudy
12:00 AM 73.4 °F 66.2 °F 78% 29.83 in - ENE 6.9 mph - N/A   Clear
12:30 AM 73.4 °F 66.2 °F 78% 29.83 in - NE 6.9 mph - N/A   Clear
1:00 AM 73.4 °F 66.2 °F 78% 29.83 in - NNE 4.6 mph - N/A   Clear
1:30 AM 73.4 °F 68.0 °F 83% 29.83 in - South 13.8 mph - N/A   Clear
2:00 AM 73 °F 67 °F 75% 29.85 in - South 11.5 mph - -  
2:00 AM 73.4 °F 66.2 °F 78% 29.83 in - South 11.5 mph - N/A   Clear
2:30 AM 71.6 °F 66.2 °F 83% 29.83 in - South 15.0 mph - N/A   Clear
3:00 AM 70 °F 66 °F 84% 29.84 in 14 mi South 17.3 mph - -   Smoke
3:00 AM 69.8 °F 66.2 °F 88% 29.83 in - South 17.3 mph - N/A   Clear
3:30 AM 69.8 °F 66.2 °F 88% 29.83 in - South 18.4 mph - N/A   Clear
4:00 AM 69.8 °F 66.2 °F 88% 29.83 in 6.2 mi South 17.3 mph - N/A   Partly Cloudy
4:30 AM 69.8 °F 66.2 °F 88% 29.83 in 6.2 mi South 15.0 mph - N/A   Scattered Clouds
4:48 AM 68.0 °F 66.2 °F 94% 29.83 in 6.2 mi South 12.7 mph - N/A   Mostly Cloudy
5:00 AM 69 °F 66 °F 88% 29.86 in - South 12.7 mph - -  
5:00 AM 68.0 °F 66.2 °F 94% 29.83 in 6.2 mi South 12.7 mph - N/A   Mostly Cloudy
5:30 AM 68.0 °F 64.4 °F 88% 29.86 in 6.2 mi SSE 11.5 mph - N/A   Mostly Cloudy
6:00 AM 69 °F 65 °F 85% 29.87 in 12 mi SSE 12.7 mph - -   Haze
6:00 AM 69.8 °F 66.2 °F 88% 29.86 in 5.6 mi SSE 12.7 mph - N/A   Mostly Cloudy
6:30 AM 68.0 °F 64.4 °F 88% 29.86 in 6.2 mi SSE 12.7 mph - N/A   Mostly Cloudy
7:00 AM 68.0 °F 64.4 °F 88% 29.89 in 6.2 mi SSE 9.2 mph - N/A   Mostly Cloudy
7:30 AM 69.8 °F 64.4 °F 83% 29.89 in 6.2 mi SSE 9.2 mph - N/A   Mostly Cloudy
8:00 AM 69 °F 65 °F 82% 29.90 in - SSE 8.1 mph - -  
8:00 AM 69.8 °F 64.4 °F 83% 29.89 in 6.2 mi SSE 8.1 mph - N/A   Mostly Cloudy
8:30 AM 69.8 °F 64.4 °F 83% 29.89 in 6.2 mi South 9.2 mph - N/A   Mostly Cloudy
9:00 AM 71.6 °F 66.2 °F 83% 29.89 in 6.2 mi SSE 8.1 mph - N/A   Mostly Cloudy
9:30 AM 71.6 °F 64.4 °F 78% 29.89 in 6.2 mi South 9.2 mph - N/A   Scattered Clouds
10:00 AM 71.6 °F 64.4 °F 78% 29.86 in 6.2 mi SSE 8.1 mph - N/A   Partly Cloudy
10:30 AM 73.4 °F 64.4 °F 73% 29.86 in 6.2 mi SE 10.4 mph - N/A   Partly Cloudy
11:00 AM 75 °F 64 °F 60% 29.87 in - SE 10.4 mph - -  
11:00 AM 75.2 °F 64.4 °F 69% 29.86 in - SE 10.4 mph - N/A   Clear
11:30 AM 75.2 °F 64.4 °F 69% 29.86 in 6.2 mi ESE 11.5 mph - N/A   Partly Cloudy
12:00 PM 77 °F 63 °F 54% 29.85 in 12 mi SE 11.5 mph - -   Haze
12:00 PM 77.0 °F 62.6 °F 61% 29.83 in 6.2 mi SE 11.5 mph - N/A   Partly Cloudy
12:30 PM 78.8 °F 64.4 °F 61% 29.83 in 6.2 mi SE 12.7 mph - N/A   Partly Cloudy
1:00 PM 77.0 °F 64.4 °F 65% 29.80 in 6.2 mi SE 15.0 mph - N/A   Partly Cloudy
1:30 PM 78.8 °F 62.6 °F 57% 29.80 in 6.2 mi ESE 11.5 mph - N/A   Partly Cloudy
2:00 PM 78 °F 63 °F 51% 29.81 in - East 11.5 mph - -  
2:00 PM 78.8 °F 62.6 °F 57% 29.80 in 6.2 mi East 11.5 mph - N/A   Partly Cloudy
2:30 PM 78.8 °F 64.4 °F 61% 29.80 in 6.2 mi East 9.2 mph - N/A   Partly Cloudy
3:00 PM 80 °F 64 °F 48% 29.78 in 16 mi East 12.7 mph - -   Haze
3:00 PM 78.8 °F 64.4 °F 61% 29.77 in 6.2 mi East 12.7 mph - N/A   Partly Cloudy
3:30 PM 77.0 °F 62.6 °F 61% 29.77 in 6.2 mi East 12.7 mph - N/A   Partly Cloudy
4:00 PM 78.8 °F 64.4 °F 61% 29.77 in 6.2 mi East 12.7 mph - N/A   Partly Cloudy
4:30 PM 78.8 °F 64.4 °F 61% 29.77 in 6.2 mi East 13.8 mph - N/A   Partly Cloudy
5:00 PM 76 °F 64 °F 59% 29.76 in - ENE 15.0 mph - -  
5:00 PM 77.0 °F 64.4 °F 65% 29.74 in 6.2 mi ENE 15.0 mph - N/A   Partly Cloudy
5:30 PM 75.2 °F 64.4 °F 69% 29.74 in 6.2 mi ENE 12.7 mph - N/A   Partly Cloudy
6:00 PM 75 °F 64 °F 61% 29.76 in 12 mi East 12.7 mph - -   Haze
6:00 PM 75.2 °F 64.4 °F 69% 29.74 in 6.2 mi East 12.7 mph - N/A   Partly Cloudy
6:30 PM 75.2 °F 64.4 °F 69% 29.74 in 6.2 mi East 12.7 mph - N/A   Partly Cloudy
7:00 PM 75.2 °F 64.4 °F 69% 29.74 in - NE 10.4 mph - N/A   Clear
7:30 PM 75.2 °F 62.6 °F 65% 29.74 in - East 8.1 mph - N/A   Clear
8:00 PM 75 °F 64 °F 60% 29.77 in - NNE 9.2 mph - -  
8:00 PM 75.2 °F 64.4 °F 69% 29.74 in - NNE 9.2 mph - N/A   Clear
8:30 PM 77.0 °F 64.4 °F 65% 29.74 in - NNE 8.1 mph - N/A   Clear
9:00 PM 75 °F 65 °F 65% 29.75 in 12 mi NNE 6.9 mph - -   Haze
9:00 PM 75.2 °F 66.2 °F 73% 29.74 in - NNE 6.9 mph - N/A   Clear
9:30 PM 77.0 °F 66.2 °F 69% 29.74 in - North 4.6 mph - N/A   Clear
10:00 PM 75.2 °F 64.4 °F 69% 29.74 in - WNW 5.8 mph - N/A   Clear
10:30 PM 75.2 °F 64.4 °F 69% 29.74 in - WNW 5.8 mph - N/A   Clear
11:00 PM 74 °F 65 °F 66% 29.76 in - WNW 6.9 mph - -  
11:00 PM 75.2 °F 64.4 °F 69% 29.74 in - WNW 6.9 mph - N/A   Clear
11:30 PM 73.4 °F 64.4 °F 73% 29.74 in - WNW 8.1 mph - N/A   Clear